• In Italy
  • List of Countries
  • For 7 days
  • Water Temperature
  • Satellite Maps
  • Weather Map
  • Weather Widgets
  • user-avatar
    Login

    Hourly Weather Exeter

    Today, 21 July, Saturday

    Time Temperature Precipitation Wind Pressure Humidity
    00:00 +18°C° 0 mm 1 mps 752 mmHg 95%
    01:00 +18°C° 0.6 mm 1 mps 752 mmHg 95%
    02:00 +18°C° 0.6 mm 1 mps 752 mmHg 95%
    03:00 +18°C° 0.6 mm 1 mps 751 mmHg 96%
    04:00 +18°C° 0.1 mm 1 mps 752 mmHg 95%
    05:00 +18°C° 0.1 mm 1 mps 752 mmHg 94%
    06:00 +18°C° 0 mm 1 mps 752 mmHg 93%
    07:00 +19°C° 0 mm 1 mps 752 mmHg 90%
    08:00 +20°C° 0 mm 1 mps 753 mmHg 87%
    09:00 +20°C° 0 mm 1 mps 753 mmHg 83%
    10:00 +22°C° 0 mm 1 mps 753 mmHg 78%
    11:00 +23°C° 0 mm 1 mps 753 mmHg 74%
    12:00 +24°C° 0 mm 2 mps 754 mmHg 70%
    13:00 +24°C° 0.1 mm 2 mps 754 mmHg 70%
    14:00 +24°C° 0.1 mm 2 mps 754 mmHg 70%
    15:00 +24°C° 0.1 mm 3 mps 754 mmHg 69%
    16:00 +24°C° 0.1 mm 3 mps 754 mmHg 72%
    17:00 +22°C° 0.1 mm 3 mps 754 mmHg 74%
    18:00 +22°C° 0.1 mm 3 mps 754 mmHg 76%
    19:00 +21°C° 0 mm 3 mps 754 mmHg 81%
    20:00 +19°C° 0 mm 3 mps 754 mmHg 87%
    21:00 +18°C° 0 mm 3 mps 754 mmHg 93%
    22:00 +18°C° 0 mm 3 mps 754 mmHg 92%
    23:00 +17°C° 0 mm 3 mps 755 mmHg 91%

    Tomorrow, 22 July, Sunday

    Time Temperature Precipitation Wind Pressure Humidity
    00:00 +17°C° 0 mm 3 mps 755 mmHg 90%
    01:00 +17°C° 0 mm 3 mps 755 mmHg 89%
    02:00 +17°C° 0 mm 3 mps 755 mmHg 87%
    03:00 +16°C° 0 mm 3 mps 755 mmHg 85%
    04:00 +16°C° 0 mm 3 mps 755 mmHg 85%
    05:00 +16°C° 0 mm 3 mps 755 mmHg 84%
    06:00 +17°C° 0 mm 3 mps 755 mmHg 83%
    07:00 +18°C° 0 mm 3 mps 755 mmHg 79%
    08:00 +20°C° 0 mm 3 mps 755 mmHg 75%
    09:00 +21°C° 0 mm 3 mps 756 mmHg 71%
    10:00 +22°C° 0 mm 3 mps 755 mmHg 70%
    11:00 +24°C° 0 mm 3 mps 755 mmHg 69%
    12:00 +25°C° 0 mm 2 mps 755 mmHg 68%
    13:00 +25°C° 0 mm 3 mps 755 mmHg 68%
    14:00 +25°C° 0 mm 3 mps 755 mmHg 68%
    15:00 +26°C° 0 mm 3 mps 755 mmHg 68%
    16:00 +25°C° 0 mm 4 mps 755 mmHg 71%
    17:00 +25°C° 0 mm 4 mps 755 mmHg 73%
    18:00 +23°C° 0 mm 4 mps 755 mmHg 75%
    19:00 +21°C° 0 mm 4 mps 755 mmHg 81%
    20:00 +20°C° 0 mm 3 mps 755 mmHg 87%
    21:00 +18°C° 0 mm 3 mps 756 mmHg 93%
    22:00 +18°C° 0 mm 3 mps 756 mmHg 94%
    23:00 +17°C° 0 mm 2 mps 756 mmHg 94%

    Day after tomorrow, 23 July, Monday

    Time Temperature Precipitation Wind Pressure Humidity
    00:00 +17°C° 0 mm 2 mps 756 mmHg 94%
    01:00 +17°C° 0 mm 2 mps 756 mmHg 94%
    02:00 +17°C° 0 mm 2 mps 755 mmHg 94%
    03:00 +18°C° 0 mm 1 mps 755 mmHg 94%
    04:00 +18°C° 0 mm 1 mps 755 mmHg 93%
    05:00 +19°C° 0 mm 1 mps 755 mmHg 92%
    06:00 +19°C° 0 mm 1 mps 755 mmHg 91%
    07:00 +20°C° 0 mm 2 mps 755 mmHg 86%
    08:00 +21°C° 0 mm 2 mps 755 mmHg 81%
    09:00 +23°C° 0 mm 2 mps 755 mmHg 76%
    10:00 +24°C° 0 mm 3 mps 755 mmHg 74%
    11:00 +24°C° 0 mm 3 mps 755 mmHg 72%
    12:00 +25°C° 0 mm 3 mps 755 mmHg 70%
    13:00 +25°C° 0 mm 3 mps 755 mmHg 69%
    14:00 +25°C° 0 mm 3 mps 755 mmHg 69%
    15:00 +25°C° 0 mm 3 mps 755 mmHg 68%
    16:00 +25°C° 0 mm 3 mps 755 mmHg 69%
    17:00 +24°C° 0 mm 3 mps 755 mmHg 71%
    18:00 +24°C° 0 mm 3 mps 754 mmHg 73%
    19:00 +21°C° 0 mm 3 mps 754 mmHg 79%
    20:00 +19°C° 0 mm 3 mps 754 mmHg 86%
    21:00 +18°C° 0 mm 2 mps 755 mmHg 93%
    22:00 +17°C° 0 mm 2 mps 754 mmHg 94%
    23:00 +17°C° 0 mm 2 mps 754 mmHg 95%

    24 July, Tuesday

    Time Temperature Precipitation Wind Pressure Humidity
    00:00 +16°C° 0 mm 2 mps 754 mmHg 95%
    01:00 +16°C° 0 mm 1 mps 754 mmHg 95%
    02:00 +15°C° 0 mm 1 mps 754 mmHg 95%
    03:00 +15°C° 0 mm 1 mps 754 mmHg 95%
    04:00 +16°C° 0 mm 1 mps 754 mmHg 94%
    05:00 +16°C° 0 mm 1 mps 754 mmHg 93%
    06:00 +16°C° 0 mm 1 mps 753 mmHg 92%
    07:00 +19°C° 0 mm 1 mps 754 mmHg 85%
    08:00 +21°C° 0 mm 1 mps 754 mmHg 79%
    09:00 +22°C° 0 mm 1 mps 754 mmHg 72%
    10:00 +23°C° 0 mm 2 mps 754 mmHg 69%
    11:00 +24°C° 0 mm 2 mps 754 mmHg 66%
    12:00 +25°C° 0 mm 3 mps 754 mmHg 62%
    13:00 +25°C° 0 mm 3 mps 754 mmHg 63%
    14:00 +25°C° 0 mm 3 mps 754 mmHg 64%
    15:00 +25°C° 0 mm 3 mps 754 mmHg 65%
    16:00 +23°C° 0 mm 4 mps 754 mmHg 69%
    17:00 +22°C° 0 mm 4 mps 754 mmHg 72%
    18:00 +22°C° 0 mm 4 mps 754 mmHg 75%
    19:00 +20°C° 0 mm 4 mps 754 mmHg 81%
    20:00 +18°C° 0 mm 3 mps 754 mmHg 87%
    21:00 +16°C° 0 mm 3 mps 755 mmHg 92%
    22:00 +16°C° 0 mm 3 mps 755 mmHg 92%
    23:00 +16°C° 0 mm 3 mps 755 mmHg 92%

    25 July, Wednesday

    Time Temperature Precipitation Wind Pressure Humidity
    00:00 +14°C° 0 mm 3 mps 755 mmHg 92%
    01:00 +14°C° 0 mm 3 mps 755 mmHg 93%
    02:00 +14°C° 0 mm 3 mps 755 mmHg 93%
    03:00 +15°C° 0 mm 2 mps 754 mmHg 94%
    04:00 +15°C° 0 mm 2 mps 754 mmHg 92%
    05:00 +15°C° 0 mm 2 mps 754 mmHg 91%
    06:00 +16°C° 0 mm 2 mps 754 mmHg 89%
    07:00 +19°C° 0 mm 1 mps 754 mmHg 83%
    08:00 +21°C° 0 mm 1 mps 754 mmHg 76%
    09:00 +22°C° 0 mm 1 mps 754 mmHg 69%
    10:00 +23°C° 0 mm 1 mps 754 mmHg 66%
    11:00 +24°C° 0 mm 2 mps 754 mmHg 63%
    12:00 +25°C° 0 mm 2 mps 754 mmHg 60%
    13:00 +25°C° 0 mm 2 mps 754 mmHg 60%
    14:00 +25°C° 0 mm 3 mps 754 mmHg 60%
    15:00 +25°C° 0 mm 3 mps 754 mmHg 61%
    16:00 +25°C° 0 mm 3 mps 753 mmHg 63%
    17:00 +24°C° 0 mm 3 mps 753 mmHg 65%
    18:00 +22°C° 0 mm 3 mps 753 mmHg 67%
    19:00 +21°C° 0 mm 3 mps 753 mmHg 75%
    20:00 +19°C° 0 mm 2 mps 753 mmHg 82%
    21:00 +17°C° 0 mm 2 mps 754 mmHg 89%
    22:00 +16°C° 0 mm 2 mps 754 mmHg 90%
    23:00 +16°C° 0 mm 2 mps 754 mmHg 91%

    26 July, Thursday

    Time Temperature Precipitation Wind Pressure Humidity
    00:00 +15°C° 0 mm 2 mps 754 mmHg 92%
    01:00 +15°C° 0 mm 2 mps 754 mmHg 92%
    02:00 +15°C° 0 mm 2 mps 754 mmHg 92%
    03:00 +15°C° 0 mm 1 mps 754 mmHg 93%
    04:00 +15°C° 0 mm 1 mps 754 mmHg 92%
    05:00 +16°C° 0 mm 1 mps 754 mmHg 92%
    06:00 +16°C° 0 mm 1 mps 755 mmHg 91%
    07:00 +19°C° 0 mm 1 mps 755 mmHg 84%
    08:00 +21°C° 0 mm 1 mps 755 mmHg 77%
    09:00 +22°C° 0 mm 1 mps 756 mmHg 70%
    10:00 +23°C° 0 mm 1 mps 756 mmHg 65%
    11:00 +24°C° 0 mm 2 mps 756 mmHg 61%
    12:00 +25°C° 0 mm 2 mps 756 mmHg 57%
    13:00 +25°C° 0 mm 2 mps 756 mmHg 58%
    14:00 +25°C° 0 mm 3 mps 756 mmHg 58%
    15:00 +26°C° 0 mm 3 mps 756 mmHg 58%
    16:00 +25°C° 0 mm 3 mps 755 mmHg 62%
    17:00 +24°C° 0 mm 3 mps 755 mmHg 66%
    18:00 +24°C° 0 mm 3 mps 755 mmHg 70%
    19:00 +21°C° 0 mm 3 mps 755 mmHg 77%
    20:00 +19°C° 0 mm 2 mps 755 mmHg 84%
    21:00 +18°C° 0 mm 2 mps 755 mmHg 91%
    22:00 +17°C° 0 mm 2 mps 755 mmHg 91%
    23:00 +18°C° 0 mm 1 mps 755 mmHg 91%
    Show more